DW7251 Weather Reports


Display with metric or nautical units.
time (UTC)temp
F
wind
direction
speed
MPH
gust
MPH
rain 1hr
in
rain 24hr
in
rain mn
in
humidity
%
barometer
mb
20180816043327 55 262 4.0 8.0 0.00 0.03 0.00 75 1012.0
20180816042829 55 238 3.0 8.0 0.00 0.03 0.00 75 1012.0
20180816042337 55 282 3.0 7.0 0.00 0.03 0.00 76 1012.0
20180816041831 55 342 3.0 7.0 0.00 0.03 0.00 76 1012.0
20180816041339 55 280 2.0 7.0 0.00 0.03 0.00 76 1011.9
20180816040831 55 299 2.0 6.0 0.00 0.03 0.00 76 1011.9
20180816040321 55 306 3.0 6.0 0.00 0.03 0.00 75 1011.9
20180816035804 55 347 2.0 6.0 0.00 0.03 0.00 76 1011.8
20180816035259 55 254 2.0 6.0 0.00 0.03 0.00 76 1011.8
20180816034758 55 299 2.0 6.0 0.00 0.03 0.00 75 1011.9
20180816034240 55 279 2.0 6.0 0.00 0.03 0.00 76 1011.9
20180816033750 55 88 2.0 6.0 0.00 0.03 0.00 76 1011.9
20180816033254 55 329 1.0 6.0 0.00 0.03 0.00 76 1011.9
20180816032749 55 11 1.0 4.0 0.00 0.03 0.00 77 1011.9
20180816032239 55 162 1.0 5.0 0.00 0.03 0.00 76 1011.9
20180816031728 55 260 2.0 5.0 0.00 0.03 0.00 76 1011.9
20180816031225 55 290 2.0 7.0 0.00 0.03 0.00 76 1012.0
20180816030726 55 300 2.0 7.0 0.00 0.03 0.00 76 1012.0
20180816030216 55 251 3.0 9.0 0.00 0.03 0.00 75 1012.0
20180816025702 55 288 4.0 9.0 0.00 0.03 0.00 76 1012.0
20180816025144 54 304 4.0 9.0 0.00 0.03 0.00 77 1012.0
20180816024647 54 132 3.0 9.0 0.00 0.03 0.00 75 1012.0
20180816024156 55 264 3.0 7.0 0.00 0.03 0.00 75 1012.0
20180816023653 55 298 3.0 7.0 0.00 0.03 0.00 75 1012.1
20180816023154 55 279 3.0 7.0 0.00 0.03 0.00 74 1012.1
20180816022635 55 252 3.0 9.0 0.00 0.03 0.00 74 1012.3
20180816022136 55 294 3.0 9.0 0.00 0.03 0.00 75 1012.3
20180816021630 54 288 3.0 9.0 0.00 0.03 0.00 76 1012.4
20180816021111 54 261 4.0 9.0 0.00 0.03 0.00 76 1012.4
20180816020602 54 202 3.0 8.0 0.00 0.03 0.00 76 1012.6
20180816020105 54 252 3.0 7.0 0.00 0.03 0.00 75 1012.6
20180816015609 55 263 3.0 9.0 0.00 0.03 0.00 74 1012.7
20180816015101 55 291 4.0 9.0 0.00 0.03 0.00 74 1012.8
20180816014554 55 318 4.0 9.0 0.00 0.03 0.00 74 1012.8
20180816014052 55 216 3.0 9.0 0.00 0.03 0.00 73 1012.8
20180816013537 56 252 2.0 7.0 0.00 0.03 0.00 76 1012.9
20180816013047 55 273 3.0 9.0 0.00 0.03 0.00 76 1012.8
20180816012548 55 247 3.0 9.0 0.00 0.03 0.00 74 1012.8
20180816012053 55 250 4.0 9.0 0.00 0.03 0.00 74 1012.8
20180816011535 55 320 4.0 9.0 0.00 0.03 0.00 74 1012.8
20180816011027 55 247 3.0 9.0 0.00 0.03 0.00 74 1012.8
20180816010528 54 342 3.0 9.0 0.00 0.03 0.00 75 1012.8
20180816010034 54 312 3.0 12.0 0.00 0.03 0.00 77 1012.7
20180816005542 54 260 4.0 12.0 0.00 0.03 0.00 77 1012.7
20180816005029 53 294 6.0 12.0 0.00 0.03 0.00 78 1012.7
20180816004528 53 294 7.0 12.0 0.00 0.03 0.00 76 1012.7
20180816004033 53 259 7.0 11.0 0.00 0.03 0.00 77 1012.8
20180816003533 53 260 7.0 11.0 0.00 0.03 0.00 77 1012.8
20180816003022 53 310 7.0 11.0 0.00 0.03 0.00 76 1012.8
20180816002506 53 285 7.0 11.0 0.00 0.03 0.00 76 1012.7
20180816001948 53 297 6.0 11.0 0.00 0.03 0.00 76 1012.7
20180816001431 53 266 6.0 11.0 0.00 0.03 0.00 76 1012.7
20180816000919 53 270 4.0 10.0 0.00 0.03 0.00 76 1012.7
20180816000409 53 242 4.0 8.0 0.00 0.03 0.00 77 1012.7
20180815235906 52 275 3.0 10.0 0.00 0.03 0.00 76 1012.7
20180815235407 52 304 3.0 10.0 0.00 0.03 0.00 77 1012.7
20180815234848 51 298 3.0 10.0 0.00 0.03 0.00 78 1012.7
20180815234330 51 276 3.0 10.0 0.00 0.03 0.00 78 1012.7
20180815233833 51 291 3.0 9.0 0.00 0.03 0.00 79 1012.7
20180815233320 51 302 4.0 10.0 0.00 0.03 0.00 78 1012.6
20180815232826 51 265 4.0 10.0 0.00 0.03 0.00 78 1012.6
20180815232312 51 287 4.0 10.0 0.00 0.03 0.00 78 1012.5
20180815231813 51 287 4.0 10.0 0.00 0.03 0.00 78 1012.5
20180815231319 51 332 4.0 8.0 0.00 0.03 0.00 78 1012.5
20180815230829 51 71 4.0 11.0 0.00 0.03 0.00 78 1012.5
20180815230322 51 318 4.0 11.0 0.00 0.03 0.00 78 1012.4
20180815225817 51 290 4.0 11.0 0.00 0.03 0.00 78 1012.4
20180815225314 51 306 4.0 11.0 0.00 0.03 0.00 79 1012.3
20180815224806 50 350 4.0 11.0 0.00 0.03 0.00 78 1012.2
20180815224312 50 302 4.0 11.0 0.00 0.03 0.00 79 1012.3
20180815223821 50 344 5.0 11.0 0.00 0.03 0.00 79 1012.1
20180815223315 50 276 4.0 11.0 0.00 0.03 0.00 80 1012.1
20180815222811 50 304 4.0 10.0 0.00 0.03 0.00 80 1012.1
20180815222307 50 309 5.0 10.0 0.00 0.03 0.00 81 1012.1
20180815221804 50 263 4.0 11.0 0.00 0.03 0.00 81 1011.9
20180815221308 50 273 4.0 11.0 0.00 0.03 0.00 81 1011.9
20180815220814 49 232 4.0 11.0 0.00 0.03 0.00 81 1011.9
20180815220312 49 263 4.0 11.0 0.00 0.03 0.00 81 1011.8
20180815215813 49 312 4.0 8.0 0.00 0.03 0.00 82 1011.8
20180815215302 49 326 4.0 8.0 0.00 0.03 0.00 82 1011.8
20180815214749 49 327 4.0 5.0 0.00 0.03 0.00 82 1011.8
20180815213837 49 302 4.0 10.0 0.00 0.03 0.00 83 1011.8
20180815213333 49 280 4.0 10.0 0.00 0.03 0.00 84 1011.7
20180815212836 49 302 4.0 9.0 0.00 0.03 0.00 83 1011.6
20180815212329 49 315 4.0 10.0 0.00 0.03 0.00 83 1011.6
20180815211818 49 322 4.0 10.0 0.00 0.03 0.00 82 1011.6
20180815211306 49 336 4.0 11.0 0.00 0.03 0.00 82 1011.5
20180815210801 49 294 4.0 11.0 0.00 0.03 0.00 82 1011.4
20180815210250 49 253 4.0 11.0 0.00 0.03 0.00 82 1011.3
20180815205758 49 316 4.0 13.0 0.00 0.03 0.00 83 1011.3
20180815205259 49 289 4.0 13.0 0.00 0.03 0.00 82 1011.2
20180815204754 49 291 4.0 13.0 0.00 0.03 0.00 82 1011.1
20180815204243 49 309 4.0 13.0 0.00 0.03 0.00 82 1011.0
20180815203732 49 250 4.0 10.0 0.00 0.03 0.00 82 1010.9
20180815203218 49 280 4.0 10.0 0.00 0.03 0.00 82 1010.9
20180815202700 49 249 4.0 10.0 0.00 0.03 0.00 82 1010.9
20180815202150 49 275 4.0 10.0 0.00 0.03 0.00 82 1010.8
20180815201648 49 262 4.0 10.0 0.00 0.03 0.00 82 1010.7
20180815201140 49 302 4.0 12.0 0.00 0.03 0.00 82 1010.7
20180815200640 49 327 4.0 12.0 0.00 0.03 0.00 81 1010.7
20180815200134 49 270 5.0 12.0 0.00 0.03 0.00 82 1010.7
20180815195618 49 312 6.0 12.0 0.00 0.03 0.00 81 1010.6
20180815195124 49 299 5.0 11.0 0.00 0.03 0.00 81 1010.6
20180815194607 49 282 4.0 10.0 0.00 0.03 0.00 81 1010.6
20180815194058 49 315 4.0 11.0 0.00 0.03 0.00 82 1010.6
20180815193550 49 270 5.0 11.0 0.00 0.03 0.00 81 1010.5
20180815193045 49 278 5.0 12.0 0.00 0.03 0.00 81 1010.4
20180815192555 49 297 5.0 12.0 0.00 0.03 0.00 81 1010.3
20180815192056 49 289 5.0 13.0 0.00 0.03 0.00 81 1010.2
20180815191550 49 301 5.0 13.0 0.00 0.03 0.00 81 1010.2
20180815191031 49 324 5.0 13.0 0.00 0.03 0.00 81 1010.2
20180815190530 49 313 5.0 13.0 0.00 0.03 0.00 81 1010.2
20180815190030 49 354 5.0 11.0 0.00 0.03 0.00 82 1010.0
20180815185522 49 294 6.0 11.0 0.00 0.03 0.00 81 1010.0
20180815185019 49 309 5.0 13.0 0.00 0.03 0.00 81 1010.0
20180815184503 49 294 5.0 13.0 0.00 0.03 0.00 81 1010.0
20180815183959 49 307 6.0 13.0 0.00 0.03 0.00 81 1010.0
20180815183457 49 305 6.0 13.0 0.00 0.03 0.00 81 1009.9
20180815182945 49 291 5.0 11.0 0.00 0.03 0.00 81 1009.9
20180815182428 49 282 5.0 9.0 0.00 0.03 0.00 81 1009.9
20180815181922 49 318 4.0 9.0 0.00 0.03 0.00 81 1009.8
20180815181417 49 327 4.0 10.0 0.00 0.03 0.00 80 1009.7
20180815180923 49 337 4.0 10.0 0.00 0.03 0.00 80 1009.8
20180815180426 49 294 3.0 10.0 0.00 0.03 0.00 79 1009.7
20180815175917 49 291 3.0 10.0 0.00 0.03 0.00 79 1009.7
20180815175412 49 288 3.0 10.0 0.00 0.03 0.00 79 1009.6
20180815174914 49 351 4.0 10.0 0.00 0.03 0.00 79 1009.6
20180815174423 49 304 3.0 10.0 0.00 0.03 0.00 79 1009.6
20180815173912 49 304 3.0 10.0 0.00 0.03 0.00 79 1009.6
20180815173352 49 289 2.0 8.0 0.00 0.03 0.00 79 1009.6
20180815172843 49 300 3.0 9.0 0.00 0.03 0.00 79 1009.7
20180815172346 49 247 3.0 9.0 0.00 0.03 0.00 79 1009.7
20180815171836 49 288 3.0 9.0 0.00 0.03 0.00 79 1009.7
20180815171317 49 273 3.0 9.0 0.00 0.03 0.00 80 1009.8
20180815170819 49 255 2.0 7.0 0.00 0.03 0.00 80 1009.7
20180815170312 49 281 2.0 7.0 0.00 0.03 0.00 80 1009.8
20180815165808 49 325 2.0 7.0 0.00 0.03 0.00 80 1009.8
20180815165308 49 313 2.0 7.0 0.00 0.03 0.00 80 1009.7
20180815164815 49 45 3.0 7.0 0.00 0.03 0.00 80 1009.7
20180815164323 49 294 2.0 7.0 0.00 0.03 0.00 81 1009.7
20180815163808 49 334 1.0 6.0 0.00 0.03 0.00 80 1009.6
20180815163311 50 311 2.0 6.0 0.00 0.03 0.00 80 1009.6
20180815162805 50 298 3.0 8.0 0.00 0.03 0.00 80 1009.5
20180815162252 50 305 4.0 8.0 0.00 0.03 0.00 80 1009.6
20180815161742 50 301 5.0 10.0 0.00 0.03 0.00 80 1009.6
20180815161237 50 271 5.0 10.0 0.00 0.03 0.00 80 1009.5
20180815160729 50 320 5.0 10.0 0.00 0.03 0.00 80 1009.5
20180815160224 50 291 5.0 10.0 0.00 0.03 0.00 80 1009.5
20180815155734 50 283 4.0 11.0 0.00 0.03 0.00 80 1009.6
20180815155215 50 315 5.0 11.0 0.00 0.03 0.00 80 1009.5
20180815154713 50 257 5.0 14.0 0.00 0.03 0.00 80 1009.5
20180815154219 50 348 6.0 14.0 0.00 0.03 0.00 80 1009.5
20180815153728 50 285 6.0 14.0 0.00 0.03 0.00 80 1009.5
20180815153232 50 311 5.0 14.0 0.00 0.03 0.00 80 1009.4
20180815152721 50 311 5.0 13.0 0.00 0.03 0.00 80 1009.5
20180815152208 50 287 6.0 13.0 0.00 0.03 0.00 80 1009.3
20180815151712 50 309 6.0 13.0 0.00 0.03 0.00 80 1009.4
20180815151216 50 332 6.0 11.0 0.00 0.03 0.00 80 1009.4
20180815150708 50 255 5.0 11.0 0.00 0.03 0.00 80 1009.4
20180815150149 50 285 4.0 9.0 0.00 0.03 0.00 80 1009.4
20180815145650 50 275 4.0 9.0 0.00 0.03 0.00 79 1009.5
20180815145150 50 315 4.0 9.0 0.00 0.03 0.00 79 1009.4
20180815144658 50 312 4.0 10.0 0.00 0.03 0.00 79 1009.4
20180815144204 50 287 4.0 10.0 0.00 0.03 0.00 78 1009.3
20180815143710 51 318 4.0 10.0 0.00 0.03 0.00 79 1009.3
20180815143200 50 336 4.0 10.0 0.00 0.03 0.00 78 1009.3
20180815142708 50 297 4.0 10.0 0.00 0.03 0.00 78 1009.4
20180815142213 50 309 4.0 13.0 0.00 0.03 0.00 79 1009.3
20180815141659 51 294 5.0 13.0 0.00 0.03 0.00 79 1009.3
20180815141142 51 332 6.0 13.0 0.00 0.03 0.00 78 1009.3
20180815140647 51 320 5.0 13.0 0.00 0.03 0.00 78 1009.3
20180815140127 51 285 5.0 12.0 0.00 0.03 0.00 78 1009.3
20180815135627 51 294 5.0 12.0 0.00 0.03 0.03 79 1009.3
20180815135127 51 276 5.0 12.0 0.00 0.03 0.03 78 1009.2
20180815134634 51 306 5.0 12.0 0.00 0.03 0.03 78 1009.3
20180815134132 51 292 6.0 13.0 0.00 0.03 0.03 78 1009.3
20180815133615 51 287 7.0 13.0 0.00 0.03 0.03 78 1009.2
20180815133123 51 339 6.0 13.0 0.00 0.03 0.03 78 1009.2
20180815132620 51 350 6.0 13.0 0.00 0.03 0.03 79 1009.1
20180815132125 51 317 6.0 12.0 0.00 0.03 0.03 78 1009.0
20180815131615 51 319 6.0 12.0 0.00 0.03 0.03 78 1008.9
20180815131121 51 274 6.0 12.0 0.00 0.03 0.03 78 1008.9
20180815130607 51 289 6.0 12.0 0.00 0.04 0.03 78 1008.7
20180815130057 51 309 7.0 15.0 0.00 0.04 0.03 78 1008.8
20180815125544 51 278 6.0 15.0 0.00 0.04 0.03 78 1008.7
20180815125025 51 323 5.0 15.0 0.00 0.04 0.03 78 1008.8
20180815124508 51 292 5.0 15.0 0.00 0.04 0.03 78 1008.9
20180815124017 51 320 4.0 10.0 0.00 0.04 0.03 78 1008.9
20180815123502 51 306 4.0 9.0 0.00 0.05 0.03 78 1009.0
20180815122953 51 304 4.0 17.0 0.00 0.05 0.03 78 1008.8
20180815122434 51 313 5.0 17.0 0.00 0.05 0.03 78 1008.6
20180815121922 51 268 7.0 17.0 0.00 0.05 0.03 77 1008.5
20180815121407 51 263 7.0 17.0 0.00 0.05 0.03 77 1008.4
20180815120902 51 312 6.0 13.0 0.00 0.05 0.03 78 1008.4
20180815120401 51 285 6.0 13.0 0.00 0.05 0.03 78 1008.5
20180815115900 52 333 6.0 13.0 0.00 0.05 0.03 78 1008.5
20180815115404 52 275 6.0 13.0 0.00 0.05 0.03 78 1008.5
20180815114909 52 304 6.0 15.0 0.00 0.05 0.03 77 1008.4
20180815114415 52 276 5.0 15.0 0.00 0.05 0.03 76 1008.5
20180815113914 52 316 6.0 17.0 0.00 0.05 0.03 76 1008.6
20180815113355 52 268 6.0 17.0 0.00 0.05 0.03 77 1008.5
20180815112851 52 315 6.0 17.0 0.00 0.05 0.03 76 1008.4
20180815112337 52 313 7.0 15.0 0.00 0.05 0.03 76 1008.3
20180815111828 52 323 7.0 15.0 0.00 0.05 0.03 76 1008.1
20180815111322 52 286 7.0 15.0 0.00 0.05 0.03 76 1008.0
20180815110807 52 306 7.0 15.0 0.00 0.05 0.03 76 1008.0
20180815110305 52 342 6.0 13.0 0.00 0.05 0.03 76 1007.9
20180815105759 52 329 6.0 14.0 0.00 0.05 0.03 75 1007.9
20180815105240 52 302 6.0 14.0 0.00 0.05 0.03 75 1007.8
20180815104720 52 318 6.0 14.0 0.00 0.05 0.03 75 1007.9
20180815104223 52 270 6.0 14.0 0.00 0.05 0.03 76 1007.9
20180815103717 52 263 6.0 13.0 0.00 0.05 0.03 76 1007.8
20180815103221 52 307 5.0 13.0 0.00 0.05 0.03 76 1007.8
20180815102714 52 302 5.0 13.0 0.00 0.05 0.03 77 1007.7
20180815102216 52 346 6.0 13.0 0.00 0.05 0.03 78 1007.8
20180815101657 52 291 6.0 13.0 0.00 0.05 0.03 77 1007.9
20180815101138 51 306 5.0 13.0 0.00 0.05 0.03 77 1007.8
20180815100630 51 316 5.0 12.0 0.00 0.05 0.03 78 1007.8
20180815100134 51 283 5.0 13.0 0.00 0.05 0.03 80 1007.7
20180815095627 51 330 5.0 13.0 0.00 0.05 0.03 82 1007.7
20180815095109 51 298 6.0 13.0 0.00 0.05 0.03 86 1007.7
20180815094610 51 306 5.0 13.0 0.00 0.05 0.03 90 1007.7
20180815094115 51 278 5.0 11.0 0.00 0.05 0.03 93 1007.6
20180815093612 50 320 5.0 11.0 0.00 0.05 0.03 94 1007.6
20180815093115 50 326 4.0 13.0 0.00 0.05 0.03 95 1007.5
20180815092618 50 294 4.0 13.0 0.00 0.07 0.03 95 1007.4
20180815092124 50 260 6.0 13.0 0.00 0.07 0.03 95 1007.5
20180815091621 49 307 8.0 13.0 0.00 0.07 0.03 95 1007.4
20180815091126 49 277 7.0 12.0 0.00 0.07 0.03 95 1007.3
20180815090623 49 274 7.0 15.0 0.00 0.07 0.03 95 1007.2
20180815090113 49 282 7.0 15.0 0.00 0.08 0.03 95 1007.2
20180815085618 49 270 6.0 16.0 0.00 0.08 0.03 95 1007.2
20180815085106 49 299 7.0 16.0 0.00 0.08 0.03 94 1007.1
20180815084612 48 280 7.0 16.0 0.00 0.08 0.03 94 1007.0
20180815084103 48 264 8.0 16.0 0.00 0.08 0.03 94 1007.0
20180815083547 48 291 7.0 15.0 0.00 0.08 0.03 93 1006.9
20180815083045 49 200 6.0 15.0 0.00 0.08 0.03 93 1006.9
20180815082546 50 287 6.0 24.0 0.03 0.08 0.03 92 1006.9
20180815082043 50 274 8.0 24.0 0.05 0.08 0.03 92 1006.8
20180815081534 51 336 11.0 24.0 0.14 0.08 0.03 89 1006.6
20180815081038 53 29 10.0 24.0 0.52 0.07 0.03 79 1006.5
20180815080528 54 266 8.0 17.0 0.00 0.05 0.00 74 1006.4
20180815080022 54 285 8.0 17.0 0.00 0.05 0.00 74 1006.3
20180815075503 54 259 8.0 14.0 0.00 0.05 0.00 74 1006.3
20180815074952 54 294 7.0 13.0 0.00 0.05 0.00 74 1006.2
20180815074441 54 282 7.0 13.0 0.00 0.05 0.00 75 1006.2
20180815073931 54 289 7.0 13.0 0.00 0.05 0.00 76 1006.2
20180815073434 54 280 7.0 13.0 0.00 0.05 0.00 76 1006.2
20180815072926 54 280 7.0 13.0 0.00 0.05 0.00 74 1006.1
20180815072421 55 288 8.0 12.0 0.00 0.05 0.00 73 1006.0
20180815071915 55 233 8.0 9.0 0.00 0.05 0.00 73 1005.9